Montoursville, PA

11:22 PM EDT on August 31, 2016 (GMT -0400)
Williamsport Rgnl

Weather History for KIPT - March, 2013

Change the Weather History Date:

Saturday, March 9, 2013

  Actual Average Record
Temperature  
Mean Temperature 42 °F 36 °F  
Max Temperature 57 °F 45 °F 80 °F (2016)
Min Temperature 26 °F 26 °F 2 °F (1943)
Degree Days  
Heating Degree Days 23 29  
Month to date heating degree days 265 276  
Since 1 July heating degree days 4431 4743  
Cooling Degree Days 0 0  
Month to date cooling degree days 0 0  
Year to date cooling degree days 0 0  
Moisture  
Dew Point 23 °F    
Average Humidity 53    
Maximum Humidity 81    
Minimum Humidity 24    
Precipitation  
Precipitation 0.00 in 0.09 in 1.11 in (1919)
Month to date precipitation T 0.77  
Year to date precipitation 4.46 5.81  
Snow  
Snow 0.00 in 0.30 in 8.00 in (1941)
Month to date snowfall T 2.7  
Since 1 July snowfall 27.1 30.7  
Snow Depth 0.00 in    
Sea Level Pressure  
Sea Level Pressure 30.33 in    
Wind  
Wind Speed 5 mph (West)    
Max Wind Speed 13 mph    
Max Gust Speed 16 mph    
Visibility 10 miles    
Events      
T = Trace of Precipitation, MM = Missing Value Source: NWS Daily Summary

Daily Weather History Graph

Daily Weather History Graph

Search for Another Location

Airport or City:

Trip Planner

Search our weather history database for the weather conditions in past years. The results will help you decide how hot, cold, wet, or windy it might be!

Date:

Astronomy

Mar. 09, 2013 Rise Set
Actual Time 6:28 AM EST 6:07 PM EST
Civil Twilight 6:01 AM EST 6:35 PM EST
Nautical Twilight 5:29 AM EST 7:07 PM EST
Astronomical Twilight 4:57 AM EST 7:39 PM EST
Moon 4:52 AM EST (3/9) 4:06 PM EST (3/9)
Length of Visible Light 12h 34m
Length of Day
11h 39m
Waning Crescent, 5% of the Moon is Illuminated
Mar 9
Waning Crescent
Mar 11
New
Mar 19
First Quarter
Mar 27
Full
Apr 3
Last Quarter

Hourly Weather History & Observations

Time (EST) Temp. Windchill Dew Point Humidity Pressure Visibility Wind Dir Wind Speed Gust Speed Precip Events Conditions
12:54 AM 30.9 °F 26.2 °F 21.0 °F 67% 30.35 in 10.0 mi West 4.6 mph - N/A   Clear
1:54 AM 30.0 °F 23.2 °F 21.0 °F 69% 30.35 in 10.0 mi West 6.9 mph - N/A   Clear
2:54 AM 28.9 °F 20.4 °F 21.9 °F 75% 30.34 in 10.0 mi West 9.2 mph - N/A   Clear
3:54 AM 28.0 °F 19.3 °F 21.9 °F 78% 30.35 in 10.0 mi West 9.2 mph - N/A   Clear
4:54 AM 28.0 °F 18.6 °F 21.9 °F 78% 30.35 in 10.0 mi West 10.4 mph - N/A   Clear
5:54 AM 27.0 °F 16.7 °F 21.9 °F 81% 30.35 in 10.0 mi West 11.5 mph - N/A   Clear
6:54 AM 27.0 °F 16.1 °F 21.9 °F 81% 30.37 in 10.0 mi West 12.7 mph - N/A   Clear
7:54 AM 30.0 °F 24.1 °F 23.0 °F 75% 30.38 in 10.0 mi West 5.8 mph - N/A   Clear
8:54 AM 34.0 °F 27.2 °F 24.1 °F 67% 30.39 in 10.0 mi West 8.1 mph - N/A   Clear
9:54 AM 39.9 °F 35.1 °F 24.1 °F 53% 30.39 in 10.0 mi West 6.9 mph - N/A   Clear
10:54 AM 44.1 °F 39.5 °F 24.1 °F 45% 30.37 in 10.0 mi WSW 8.1 mph - N/A   Clear
11:54 AM 48.0 °F - 23.0 °F 37% 30.34 in 10.0 mi WSW 8.1 mph - N/A   Clear
12:54 PM 51.1 °F - 21.9 °F 32% 30.31 in 10.0 mi West 6.9 mph - N/A   Clear
1:54 PM 54.0 °F - 21.9 °F 29% 30.30 in 10.0 mi West 6.9 mph - N/A   Clear
2:54 PM 55.0 °F - 19.9 °F 25% 30.28 in 10.0 mi WSW 6.9 mph - N/A   Clear
3:54 PM 55.9 °F - 19.0 °F 24% 30.27 in 10.0 mi West 4.6 mph - N/A   Clear
4:54 PM 55.0 °F - 19.0 °F 24% 30.26 in 10.0 mi Calm Calm - N/A   Clear
5:54 PM 46.9 °F - 25.0 °F 42% 30.27 in 10.0 mi Calm Calm - N/A   Clear
6:54 PM 43.0 °F 41.3 °F 27.0 °F 53% 30.28 in 10.0 mi ESE 3.5 mph - N/A   Clear
7:54 PM 37.9 °F - 25.0 °F 60% 30.29 in 10.0 mi Calm Calm - N/A   Clear
8:54 PM 37.0 °F - 25.0 °F 62% 30.30 in 10.0 mi Calm Calm - N/A   Clear
9:54 PM 37.0 °F - 23.0 °F 57% 30.30 in 10.0 mi Calm Calm - N/A   Clear
10:54 PM 32.0 °F - 21.9 °F 66% 30.30 in 10.0 mi Calm Calm - N/A   Clear
11:54 PM 30.9 °F - 21.9 °F 69% 30.30 in 10.0 mi Calm Calm - N/A   Clear